Content
SEND FEEDBACK

Daily
Averages
Monthly
Summary
Jamaica

MONTEGO BAY, JAMAICA


Home > Caribbean > Jamaica
Elevation: 10 feet     Latitude: 18 30N     Longitude: 077 55W

WEATHER
 
SELECT A DAY
Number of Records: 168,330;   Date Range: 7/1/96 - 8/10/14
 
SHARE

PRINT THIS DATA

[ ← Previous Day ]
WEATHER ALMANAC - JANUARY 3, 2013
[ Next Day → ]
[ °C ]   °F
Weather ElementAverageHighLow
Temperature77.9 °F82.4 °F (11:00 am)71.6 °F (5:00 am)
Dewpoint70.5 °F75.2 °F (3:00 pm)66 °F (1:00 am)
Humidity76.8 %83 % (5:00 am)69 % (10:00 am)
Barometer29.99 in30.06 in (10:00 am)29.95 in (2:00 am)
Wind Speed7.6 mph17.3 mph (7:00 pm)
Weather ElementAverage
Visibility7.9 mi
Wind DirectionESE (114.5 °)

Weather ElementTotal
Precipitation---
Cooling Degree Days12 (Base 65)
Growing Degree Days27 (Base 50)
Averaged from 29 records on January 3, 2013
WEATHER CONDITIONS BREAKOUT
WIND DIRECTION BREAKOUT
WEATHER BY HOUR - JANUARY 3, 2013
[ °C ]   °F
Local TimeTemperatureDewpointHumidityBarometerVisibilityWind DirectionWind SpeedGust SpeedPrecipitationEventsConditions
1:00 AM73.0 °F66.0 °F73 %29.98 in12.0 miSouth (190°)5.8 mphScattered Clouds
1:00 AM73.4 °F66.2 °F78 %29.98 in6.2 miSouth (190°)5.8 mphPartly Cloudy
2:00 AM75.2 °F66.2 °F73 %29.95 in6.2 miSouth (170°)2.3 mphPartly Cloudy
3:00 AM75.2 °F68.0 °F78 %29.95 in6.2 miENE (60°)2.3 mphPartly Cloudy
4:00 AM75.0 °F67.0 °F70 %29.96 in12.0 miNW (310°)1.2 mphScattered Clouds
4:00 AM75.2 °F68.0 °F78 %29.95 in6.2 miNW (310°)1.2 mphPartly Cloudy
5:00 AM71.6 °F66.2 °F83 %29.98 in6.2 miESE (110°)2.3 mphPartly Cloudy
6:00 AM71.6 °F66.2 °F83 %29.98 in6.2 miESE (120°)1.2 mphMostly Cloudy
7:00 AM72.0 °F66.0 °F77 %30.01 in12.0 miSE (140°)3.5 mphMostly Cloudy
7:00 AM71.6 °F66.2 °F83 %30.01 in6.2 miSE (140°)3.5 mphMostly Cloudy
8:00 AM75.2 °F68.0 °F78 %30.04 in6.2 miESE (120°)3.5 mphMostly Cloudy
9:00 AM78.8 °F69.8 °F74 %30.04 in6.2 miEast (90°)3.5 mphMostly Cloudy
10:00 AM81.0 °F72.0 °F69 %30.06 in15.0 miENE (60°)12.7 mphMostly Cloudy
10:00 AM80.6 °F73.4 °F79 %30.04 in6.2 miENE (60°)12.7 mphMostly Cloudy
11:00 AM82.4 °F73.4 °F74 %30.04 in6.2 miNE (40°)10.4 mphMostly Cloudy
12:00 PM80.6 °F73.4 °F79 %30.01 in6.2 miNE (40°)9.2 mphMostly Cloudy
1:00 PM82.0 °F74.0 °F71 %29.99 in15.0 miNE (50°)11.5 mphMostly Cloudy
1:00 PM82.4 °F73.4 °F74 %29.98 in6.2 miNE (50°)11.5 mphMostly Cloudy
2:00 PM78.8 °F73.4 °F83 %29.98 in6.2 miESE (110°)8.1 mphScattered Clouds
3:00 PM82.4 °F75.2 °F79 %29.95 in6.2 miENE (60°)8.1 mphMostly Cloudy
4:00 PM80.0 °F74.0 °F77 %29.96 in15.0 miEast (90°)12.7 mphRainLight Rain Showers
4:00 PM80.6 °F73.4 °F79 %29.95 in6.2 miEast (90°)12.7 mphMostly Cloudy
5:00 PM80.6 °F73.4 °F79 %29.95 in6.2 miEast (80°)10.4 mphMostly Cloudy
6:00 PM82.4 °F75.2 °F79 %29.98 in6.2 miENE (70°)13.8 mphScattered Clouds
7:00 PM82.0 °F74.0 °F70 %30.00 in12.0 miEast (90°)17.3 mphHaze
8:00 PM80.6 °F73.4 °F79 %30.01 in6.2 miEast (100°)12.7 mphPartly Cloudy
9:00 PM80.6 °F73.4 °F79 %30.04 in6.2 miEast (80°)12.7 mphPartly Cloudy
10:00 PM77.0 °F68.0 °F74 %30.04 in6.2 miSSE (160°)2.3 mphPartly Cloudy
11:00 PM77.0 °F68.0 °F74 %30.04 in6.2 miSE (140°)5.8 mphPartly Cloudy
Hourly data recorded from MKJS, located miles away from Montego Bay, Jamaica







STORIES FROM OUR PARTNERS